Stations météo

réclame
Mon MeteoGroup
Tarbes/Ossun, France (7621): Température de l'air & dewpoint: 15.06.2018 01:00:00 - 21.06.2018 01:00:00 (CEST)Tarbes/Ossun, France (7621): Température de l'air 5cm: 15.06.2018 01:00:00 - 21.06.2018 01:00:00 (CEST)Tarbes/Ossun, France (7621): Température de l'air -20cm & Température de l'air -100cm: 15.06.2018 01:00:00 - 21.06.2018 01:00:00 (CEST)Tarbes/Ossun, France (7621): Vitesse du vent & gusts: 15.06.2018 01:00:00 - 21.06.2018 01:00:00 (CEST)Tarbes/Ossun, France (7621): Direction du vent: 15.06.2018 01:00:00 - 21.06.2018 01:00:00 (CEST)Tarbes/Ossun, France (7621): reduced air pressure: 15.06.2018 01:00:00 - 21.06.2018 01:00:00 (CEST)Tarbes/Ossun, France (7621): visibility: 15.06.2018 01:00:00 - 21.06.2018 01:00:00 (CEST)Tarbes/Ossun, France (7621): Ensoleillement: 15.06.2018 01:00:00 - 21.06.2018 01:00:00 (CEST)Tarbes/Ossun, France (7621): Quantités de précipitations: 15.06.2018 01:00:00 - 21.06.2018 01:00:00 (CEST)
Date & Time tt [°C] td [°C] tt 5cm [°C] tt -20cm [°C] tt -100cm [°C] ff [km/h] ff [knt] fx [km/h] fx [knt] dd ppp [hPa] vv [km] sd [min] rr [mm]
21.06.2018 01:00:00 - - - - - - - - - - - - - -
21.06.2018 00:00:00 21,0 17,6 17,5 20,4 15,6 10 5 14 8 S 1018,4 60 0 0,0
20.06.2018 23:00:00 21,5 17,7 18,4 20,4 15,5 8 5 11 6 SSE 1018,2 34 0 0,0
20.06.2018 22:00:00 23,3 18,8 19,8 20,3 15,5 8 5 10 6 SW 1017,4 60 11 0,0
20.06.2018 21:00:00 28,1 17,0 24,4 20,2 15,5 6 3 16 9 NE 1016,3 60 60 0,0
20.06.2018 20:00:00 29,1 16,3 30,2 20,0 15,5 10 5 21 11 NNE 1016,1 49 60 0,0
20.06.2018 19:00:00 29,8 17,3 37,6 19,8 15,5 11 6 25 14 NNE 1015,8 54 60 0,0
20.06.2018 18:00:00 30,3 17,0 40,9 19,6 15,5 11 6 26 14 NNE 1016,1 40 60 0,0
20.06.2018 17:00:00 30,1 17,5 42,1 19,3 15,5 13 7 28 15 NE 1016,1 31 60 0,0
20.06.2018 16:00:00 30,2 17,0 42,8 19,0 15,5 15 8 27 14 NNE 1016,3 23 60 0,0
20.06.2018 15:00:00 29,8 17,3 41,6 18,8 15,5 14 8 30 16 NNE 1016,5 20 60 0,0
20.06.2018 14:00:00 29,6 17,1 40,7 18,6 15,5 12 6 25 14 NNE 1016,9 22 60 0,0
20.06.2018 13:00:00 28,6 17,5 39,9 18,4 15,5 8 5 19 10 N 1017,2 24 60 0,0
20.06.2018 12:00:00 27,5 17,1 37,0 18,4 15,5 6 3 16 9 NNE 1017,4 20 60 0,0
20.06.2018 11:00:00 26,0 17,4 30,9 18,4 15,5 7 4 18 10 ENE 1017,6 42 60 0,0
20.06.2018 10:00:00 24,3 17,3 24,5 18,4 15,5 8 4 17 9 NE 1018,0 38 60 0,0
20.06.2018 09:00:00 21,6 17,2 18,6 18,6 15,5 5 3 9 5 N 1018,3 50 60 0,0
20.06.2018 08:00:00 18,3 15,7 14,4 18,7 15,5 6 3 13 7 SE 1018,8 41 60 0,0
20.06.2018 07:00:00 15,3 14,3 11,9 18,8 15,5 11 6 13 7 S 1019,0 18 13 0,0
20.06.2018 06:00:00 15,3 14,3 12,4 18,9 15,5 11 6 14 8 S 1019,1 20 0 0,0
20.06.2018 05:00:00 15,2 14,2 11,4 19,0 15,5 6 4 10 5 SSE 1019,3 44 0 0,0
20.06.2018 04:00:00 15,0 14,2 11,9 19,1 15,5 6 3 10 5 S 1019,5 45 0 0,0
20.06.2018 03:00:00 15,0 14,0 11,7 19,2 15,5 7 4 9 5 SSW 1020,0 42 0 0,0
20.06.2018 02:00:00 15,7 14,6 12,0 19,2 15,5 5 3 8 5 S 1020,2 57 0 0,0
20.06.2018 01:00:00 16,2 15,2 12,6 19,3 15,5 4 2 8 4 SSW 1020,6 56 0 0,0
20.06.2018 00:00:00 16,8 15,3 13,3 19,3 15,5 6 3 14 8 S 1020,8 59 0 0,0
19.06.2018 23:00:00 18,5 16,7 13,3 19,3 15,5 4 2 7 4 SW 1020,5 60 0 0,0
19.06.2018 22:00:00 21,9 15,3 16,8 19,2 15,5 4 2 9 5 E 1019,7 60 0 0,0
19.06.2018 21:00:00 23,3 15,1 22,2 19,1 15,5 6 4 15 8 NE 1019,7 60 9 0,0
19.06.2018 20:00:00 25,1 15,4 24,9 19,0 15,5 6 3 13 7 NE 1019,7 46 38 0,0
19.06.2018 19:00:00 23,9 15,1 25,0 18,8 15,5 6 4 14 8 ENE 1020,2 60 20 0,0
19.06.2018 18:00:00 24,5 14,9 27,9 18,7 15,5 10 5 18 10 NNE 1020,5 56 10 0,0
19.06.2018 17:00:00 25,2 14,9 30,2 18,5 15,5 5 3 16 8 NE 1020,7 60 10 0,0
19.06.2018 16:00:00 24,2 14,6 30,2 18,3 15,5 9 5 29 16 NNE 1021,1 60 3 0,0
19.06.2018 15:00:00 25,7 16,0 37,5 18,1 15,4 10 5 27 15 ENE 1021,0 44 54 0,0
19.06.2018 14:00:00 24,0 15,0 32,9 18,0 15,4 13 7 29 15 NE 1021,8 60 33 0,0
19.06.2018 13:00:00 23,2 15,5 29,6 17,9 15,4 11 6 23 12 NE 1022,1 60 9 0,0
19.06.2018 12:00:00 21,8 14,7 29,7 17,9 15,5 11 6 24 13 ENE 1022,7 37 40 0,0
19.06.2018 11:00:00 21,4 16,4 26,9 17,9 15,4 9 5 18 10 ENE 1023,1 57 38 0,0
19.06.2018 10:00:00 19,4 16,2 22,2 17,9 15,4 6 3 16 8 NE 1024,0 47 38 0,0
19.06.2018 09:00:00 16,9 15,1 17,8 17,9 15,4 5 3 17 9 ENE 1024,8 28 22 0,0
19.06.2018 08:00:00 16,0 14,7 15,7 18,0 15,5 5 3 9 5 E 1025,1 31 0 0,0
19.06.2018 07:00:00 15,6 14,5 15,4 18,0 15,4 3 2 8 5 NE 1025,4 20 0 0,0
19.06.2018 06:00:00 15,5 14,2 15,2 18,1 15,4 2 1 9 5 NNE 1025,6 10 0 0,0
19.06.2018 05:00:00 15,7 14,2 15,2 18,1 15,5 5 3 16 8 NNE 1025,6 36 0 0,0
19.06.2018 04:00:00 16,2 15,1 15,7 18,2 15,4 7 4 11 6 N 1025,5 15 0 0,0
19.06.2018 03:00:00 16,6 15,3 16,1 18,2 15,5 6 4 12 7 NNE 1025,5 19 0 0,0
19.06.2018 02:00:00 16,8 15,7 16,3 18,2 15,5 9 5 13 7 N 1025,7 33 0 0,0
19.06.2018 01:00:00 17,2 15,7 16,6 18,2 15,4 9 5 17 9 N 1025,8 19 0 0,0
19.06.2018 00:00:00 17,8 15,8 17,0 18,3 15,4 7 4 17 9 NNW 1026,0 60 0 0,0
18.06.2018 23:00:00 18,5 15,6 17,2 18,2 15,4 6 4 10 5 NNW 1025,8 20 0 0,0
18.06.2018 22:00:00 18,7 15,4 17,6 18,3 15,5 7 4 13 7 SW 1025,3 15 0 0,0
18.06.2018 21:00:00 19,5 14,9 18,9 18,2 15,4 4 2 9 5 WSW 1024,9 7 0 0,0
18.06.2018 20:00:00 20,1 14,5 20,4 18,1 15,4 0 0 9 5 N 1024,8 16 0 0,0
18.06.2018 19:00:00 20,5 15,1 21,9 18,0 15,4 4 2 12 7 NW 1024,8 18 0 0,0
18.06.2018 18:00:00 20,3 15,3 21,5 17,8 15,4 7 4 13 7 NNW 1025,0 60 0 0,0
18.06.2018 17:00:00 20,1 14,5 21,6 17,6 15,4 7 4 19 10 NNW 1025,4 58 0 0,0
18.06.2018 16:00:00 20,7 13,9 26,4 17,4 15,5 6 3 15 8 NW 1025,2 16 0 0,0
18.06.2018 15:00:00 20,7 14,3 28,0 17,2 15,4 6 3 20 11 WNW 1025,4 19 28 0,0
18.06.2018 14:00:00 20,0 14,8 25,7 17,1 15,4 9 5 18 10 N 1025,7 60 27 0,0
18.06.2018 13:00:00 19,5 13,9 26,3 17,0 15,4 7 4 21 11 WNW 1026,2 16 42 0,0
18.06.2018 12:00:00 18,4 13,3 24,9 17,0 15,4 9 5 30 16 WNW 1026,6 16 33 0,0
18.06.2018 11:00:00 17,5 12,8 20,8 17,0 15,4 6 4 19 10 NW 1026,8 19 39 0,0
18.06.2018 10:00:00 16,6 11,9 18,2 17,0 15,4 7 4 14 8 W 1027,0 52 29 0,0
18.06.2018 09:00:00 14,9 12,0 15,0 17,1 15,5 6 4 12 7 SSW 1027,2 48 0 0,0
18.06.2018 08:00:00 14,1 11,6 13,5 17,1 15,4 9 5 14 7 SSW 1027,1 44 0 0,0
18.06.2018 07:00:00 13,4 11,8 13,1 17,2 15,5 5 3 10 5 SSW 1027,1 37 0 0,0
18.06.2018 06:00:00 13,3 11,7 12,6 17,3 15,4 7 4 11 6 S 1026,7 2,1 0 0,0
18.06.2018 05:00:00 13,5 11,5 11,9 17,4 15,4 6 4 10 5 SSW 1026,6 20 0 0,0
18.06.2018 04:00:00 13,0 11,2 9,7 17,5 15,4 6 3 13 7 WSW 1026,6 20 0 0,0
18.06.2018 03:00:00 13,4 11,3 12,0 17,5 15,4 7 4 16 9 W 1026,9 20 0 0,0
18.06.2018 02:00:00 13,5 11,4 12,9 17,7 15,5 14 7 25 14 W 1026,8 35 0 0,0
18.06.2018 01:00:00 14,5 11,8 13,6 17,7 15,4 9 5 16 9 W 1026,6 50 0 0,0
18.06.2018 00:00:00 14,8 11,9 10,8 17,7 15,4 7 4 14 7 WSW 1026,9 60 0 0,0
17.06.2018 23:00:00 15,3 11,5 - - - 8 4 15 8 W 1026,3 60 - -
17.06.2018 22:00:00 16,5 12,3 14,5 17,7 15,4 8 4 15 8 WNW 1025,6 8 9 0,0
17.06.2018 21:00:00 18,2 12,9 16,7 17,6 15,4 8 4 17 9 WSW 1024,8 60 17 0,0
17.06.2018 20:00:00 18,8 13,2 18,5 17,5 15,4 11 6 19 10 W 1024,7 57 2 0,0
17.06.2018 19:00:00 19,2 13,1 20,8 17,4 15,4 11 6 23 13 SSW 1024,1 59 48 0,0
17.06.2018 18:00:00 20,0 13,2 21,4 17,3 15,4 10 6 24 13 WSW 1024,0 20 14 0,0
17.06.2018 17:00:00 18,3 12,3 - - - 15 8 26 14 WSW 1024,7 50 - -
17.06.2018 16:00:00 17,6 12,9 18,3 17,1 15,4 16 8 29 16 WNW 1024,7 53 0 0,0
17.06.2018 15:00:00 18,6 13,7 23,1 17,0 15,4 15 8 29 16 WNW 1024,1 60 5 0,0
17.06.2018 14:00:00 18,8 13,4 24,9 16,9 15,4 16 8 27 15 NW 1024,2 49 17 0,0
17.06.2018 13:00:00 18,4 12,4 20,7 16,8 15,4 13 7 26 14 WNW 1024,0 42 16 0,0
17.06.2018 12:00:00 17,6 11,2 22,6 16,8 15,4 10 5 25 13 W 1024,3 54 0 0,0
17.06.2018 11:00:00 17,6 10,9 21,1 16,8 15,4 9 5 20 11 W 1024,3 57 25 0,0
17.06.2018 10:00:00 16,9 11,2 18,0 16,8 15,4 9 5 19 11 W 1024,4 28 50 0,0
17.06.2018 09:00:00 15,5 12,3 15,9 16,9 15,5 9 5 15 8 SW 1024,7 20 25 0,0
17.06.2018 08:00:00 14,3 11,6 13,9 17,0 15,4 5 3 10 5 W 1024,4 53 0 0,0
17.06.2018 07:00:00 13,6 11,3 12,5 17,0 15,4 5 3 11 6 W 1023,9 50 0 0,0
17.06.2018 06:00:00 13,7 11,6 12,7 17,1 15,4 5 3 8 4 WSW 1023,4 50 0 0,0
17.06.2018 05:00:00 13,7 11,9 13,3 17,1 15,4 4 2 8 5 SSW 1023,3 48 0 0,0
17.06.2018 04:00:00 13,8 11,8 13,5 17,2 15,4 6 3 8 5 S 1023,1 48 0 0,0
17.06.2018 03:00:00 14,2 11,2 13,8 17,2 15,4 6 3 12 7 WSW 1023,2 59 0 0,0
17.06.2018 02:00:00 14,4 11,5 13,9 17,3 15,4 5 3 12 6 W 1023,3 57 0 0,0
17.06.2018 01:00:00 14,8 11,4 13,8 17,3 15,5 5 3 21 11 W 1023,4 60 0 0,0
17.06.2018 00:00:00 15,3 12,4 14,1 17,3 15,4 9 5 19 10 W 1023,3 59 0 0,0
16.06.2018 23:00:00 15,3 13,3 12,7 17,3 15,4 8 4 15 8 W 1022,8 52 0 0,0
16.06.2018 22:00:00 15,8 13,3 14,8 17,3 15,4 7 4 15 8 SSW 1021,8 19 0 0,0
16.06.2018 21:00:00 16,9 13,4 17,0 17,3 15,4 8 4 19 10 W 1021,3 59 28 0,0
16.06.2018 20:00:00 17,3 14,2 18,8 17,2 15,4 11 6 18 10 SW 1020,7 50 0 0,0
16.06.2018 19:00:00 17,6 13,9 20,1 17,2 15,4 10 5 15 8 W 1020,2 47 0 0,0
16.06.2018 18:00:00 17,4 13,9 17,8 17,1 15,5 9 5 15 8 W 1020,1 36 0 0,0
16.06.2018 17:00:00 16,3 14,1 16,1 17,1 15,4 9 5 19 10 WNW 1020,6 19 0 0,0
16.06.2018 16:00:00 15,8 14,0 16,3 17,0 15,5 11 6 17 9 NW 1020,5 13 0 0,0
16.06.2018 15:00:00 15,7 14,6 16,0 17,0 15,4 5 3 19 11 N 1020,5 4,1 0 0,0
16.06.2018 14:00:00 17,1 14,6 - - - 2 1 11 6 NW 1020,3 19 - -
16.06.2018 13:00:00 15,5 14,4 16,8 16,9 15,4 5 3 11 6 E 1020,7 7 0 0,2
16.06.2018 12:00:00 14,5 13,9 15,7 16,9 15,4 4 2 18 10 ENE 1020,9 3,8 0 0,2
16.06.2018 11:00:00 14,1 13,5 15,0 17,0 15,5 11 6 19 10 NNE 1020,4 9 0 0,0
16.06.2018 10:00:00 13,9 13,3 14,9 17,0 15,5 14 8 21 12 NNE 1019,8 7 0 0,0
16.06.2018 09:00:00 15,5 14,4 16,0 17,1 15,4 4 2 13 7 N 1019,2 15 0 0,0
16.06.2018 08:00:00 15,0 14,0 15,0 17,1 15,5 2 1 6 3 NNW 1019,1 10 0 0,0
16.06.2018 07:00:00 14,7 13,9 14,4 17,2 15,5 3 1 11 6 ENE 1019,0 10 0 0,0
16.06.2018 06:00:00 14,5 13,9 - - - 8 4 11 6 S 1019,0 7 - 0,0
16.06.2018 05:00:00 14,8 14,2 14,7 17,3 15,4 6 4 9 5 SSW 1019,0 7 0 0,0
16.06.2018 04:00:00 14,8 14,0 14,8 17,3 15,5 4 2 5 3 S 1019,0 7 0 0,0
16.06.2018 03:00:00 14,7 14,1 13,4 17,4 15,4 4 2 7 4 S 1019,3 7 0 0,0
16.06.2018 02:00:00 14,6 13,5 12,2 17,4 15,5 4 2 6 3 WSW 1019,8 12 0 0,0
16.06.2018 01:00:00 15,0 14,0 11,6 17,5 15,5 4 2 9 5 W 1019,8 13 0 0,0
16.06.2018 00:00:00 15,2 13,9 13,7 17,5 15,5 7 4 10 6 SW 1019,8 20 0 0,0
15.06.2018 23:00:00 15,9 14,3 15,5 17,5 15,5 5 3 9 5 SW 1019,8 26 0 0,0
15.06.2018 22:00:00 15,8 14,2 15,5 17,4 15,5 3 1 16 9 W 1019,7 2,9 0 0,0
15.06.2018 21:00:00 16,3 14,3 16,0 17,4 15,5 14 8 22 12 NW 1019,7 13 0 0,0
15.06.2018 20:00:00 17,7 12,8 17,7 17,3 15,5 8 5 18 10 WNW 1019,0 52 0 0,0
15.06.2018 19:00:00 18,2 12,6 20,9 17,2 15,5 11 6 32 17 SSW 1018,7 27 18 0,0
15.06.2018 18:00:00 17,7 13,8 21,2 17,1 15,5 16 9 28 15 SW 1019,2 20 0 0,0
15.06.2018 17:00:00 19,1 12,8 24,4 17,0 15,5 16 8 22 12 W 1018,8 20 9 0,0
15.06.2018 16:00:00 18,5 12,9 22,3 16,9 15,5 16 8 22 12 WNW 1018,8 19 1 0,0
15.06.2018 15:00:00 17,9 13,8 19,9 16,9 15,5 8 5 22 12 NW 1018,9 33 0 0,0
15.06.2018 14:00:00 17,5 14,2 21,3 16,8 15,5 12 6 20 11 WNW 1019,0 15 0 0,0
15.06.2018 13:00:00 16,8 13,3 20,6 16,8 15,5 13 7 30 16 NW 1018,8 16 0 0,0
15.06.2018 12:00:00 16,8 13,7 18,0 16,8 15,5 8 5 24 13 NW 1018,8 16 4 0,0
15.06.2018 11:00:00 15,0 13,2 16,1 16,8 15,5 7 4 11 6 W 1019,1 11 0 0,0
15.06.2018 10:00:00 14,6 13,1 15,2 16,9 15,5 4 2 6 4 N 1019,5 17 0 0,0
15.06.2018 09:00:00 14,0 13,0 13,2 17,0 15,5 4 2 9 5 N 1019,5 16 8 0,0
15.06.2018 08:00:00 13,0 12,5 10,1 17,0 15,5 2 1 18 10 ESE 1019,2 14 0 0,0
15.06.2018 07:00:00 12,2 11,3 10,1 17,1 15,5 5 3 8 4 SSW 1018,8 8 0 0,0
15.06.2018 06:00:00 13,4 12,1 12,0 17,2 15,5 5 3 11 6 S 1018,7 16 0 0,0
15.06.2018 05:00:00 14,2 12,6 13,8 17,2 15,5 8 4 17 9 S 1018,6 31 0 0,0
15.06.2018 04:00:00 14,5 12,7 14,4 17,3 15,5 4 2 6 4 W 1019,3 15 0 0,0
15.06.2018 03:00:00 14,6 12,6 14,4 17,3 15,5 4 2 9 5 WNW 1019,6 43 0 0,0
15.06.2018 02:00:00 14,7 12,7 14,2 17,4 15,5 6 3 10 6 WNW 1019,9 45 0 0,0
15.06.2018 01:00:00 15,0 12,7 14,3 17,4 15,5 6 3 16 9 W 1020,3 46 0 0,0

tt = Température de l'air
td = dewpoint
tt 5cm = Température de l'air 5cm
tt -20cm = Température de l'air -20cm
tt -100cm = Température de l'air -100cm
ff = Vitesse du vent
fx = gusts
dd = Direction du vent
ppp = reduced air pressure
vv = visibility
sd = Ensoleillement
rr = Quantités de précipitations

stations d'obs. à proximité